Regional Weather Roundup
Issued by NWS

Home | Current Version | Previous Version | Graphics & Text | Print | Product List | Glossary On
Versions: 1 2 3 4 5 6 7 8 9 10 11 12 13 14 15 16 17 18 19 20 21 22 23 24 25 26 27 28 29 30 31 32 33 34 35 36 37 38 39 40 41 42 43 44 45 46 47 48 49 50
000
ASUS43 KIND 101159
RWRIN

WEATHER ROUNDUP FOR INDIANA
NATIONAL WEATHER SERVICE INDIANAPOLIS IN
700 AM EST SAT DEC 10 2016

NOTE: "FAIR" INDICATES FEW OR NO CLOUDS BELOW 12,000 FEET WITH NO
SIGNIFICANT WEATHER AND/OR OBSTRUCTIONS TO VISIBILITY.

* - STATION DOES NOT REPORT WEATHER SUCH AS PRECIPITATION OR FOG.

+ - STATION NOT QUALITY CONTROLLED BY THE NATIONAL WEATHER SERVICE.
    USE DATA WITH CAUTION...ESPECIALLY DEWPOINT AND RELATIVE
    HUMIDITY OBSERVATIONS.

INZ001>003-010>013-019-020-101300-
NORTHWEST INDIANA

CITY           SKY/WX    TMP DP  RH WIND       PRES   REMARKS
GARY /AIRPORT/ CLOUDY    23  16  74 W9        30.53R WCI  13
KNOX *+        CLOUDY    21   0  39 W7        30.51S WCI  13
LA PORTE +     CLOUDY    20  13  75 SW9       30.51R WCI   9
6HR MIN TEMP:  18; 6HR MAX TEMP:  20;

MONTICELLO +   CLOUDY    23  12  63 W7        30.53S WCI  14
6HR MIN TEMP:  21; 6HR MAX TEMP:  23;


$$

LMZ046-743>745-101300-
SOUTHERN LAKE MICHIGAN

STATION/POSITION TIME  TEMP    WIND        PRES    WAVE
                       AIR SEA DIR/SP/G            HT
                 (UTC) (F)     (DEG/KT/KT) (MB)    (FT)

$$

INZ004-005-014>016-021>024-101300-
NORTH CENTRAL INDIANA

CITY           SKY/WX    TMP DP  RH WIND       PRES   REMARKS
GOSHEN         CLOUDY    21  11  65 W12       30.49R WCI   9
6HR MIN TEMP:  20; 6HR MAX TEMP:  21;

SOUTH BEND     CLOUDY    19  13  77 SW10      30.49R WCI   7
6HR MIN TEMP:  18; 6HR MAX TEMP:  20; 6HR PCP: TRACE;

WARSAW +       CLOUDY    21  12  68 W7        30.51R WCI  13

$$

INZ006>009-017-018-025>027-101300-
NORTHEAST INDIANA

CITY           SKY/WX    TMP DP  RH WIND       PRES   REMARKS
ANGOLA *+      MOCLDY    19  14  79 W9        30.45S WCI   9
FORT WAYNE     CLOUDY    20  13  74 W8        30.51R WCI  10
6HR MIN TEMP:  19; 6HR MAX TEMP:  20;

KENDALLVILLE + MOCLDY    20  13  75 W10       30.47S WCI   9

$$

INZ028-029-035-036-043>045-051>053-101300-
WEST CENTRAL INDIANA

CITY           SKY/WX    TMP DP  RH WIND       PRES   REMARKS
CRAWFORDSVL +  CLOUDY    19  17  88 SW5       30.55R WCI  13
6HR MIN TEMP:  19; 6HR MAX TEMP:  19;

GREENCASTLE +  CLOUDY    21  18  86 CALM      30.55S
LAFAYETTE      CLOUDY    21  17  84 W6        30.55R WCI  13
6HR MIN TEMP:  21; 6HR MAX TEMP:  23;

TERRE HAUTE    CLOUDY    24  15  68 W3        30.58R
6HR MIN TEMP:  23; 6HR MAX TEMP:  24;


$$

INZ030>032-037>040-046>048-054>057-064-065-101300-
CENTRAL INDIANA

CITY           SKY/WX    TMP DP  RH WIND       PRES   REMARKS
COLUMBUS       CLOUDY    23  19  86 W7        30.57  WCI  15
FRANKFORT +    CLOUDY    24  19  78 W8        30.55R WCI  16
6HR MIN TEMP:  24; 6HR MAX TEMP:  26;

GREENWOOD *+   CLOUDY    23  17  76 W6        30.55S WCI  16
6HR MIN TEMP:  21; 6HR MAX TEMP:  23;

INDIANAPOLIS   CLOUDY    22  14  71 W7        30.54R WCI  13
6HR MIN TEMP:  19; 6HR MAX TEMP:  22;

-EAGLE CREEK   CLOUDY    22  14  71 VRB5      30.54R WCI  16
6HR MIN TEMP:  22; 6HR MAX TEMP:  23;

KOKOMO +       CLOUDY    23  16  74 W8        30.53R WCI  14
6HR MIN TEMP:  19; 6HR MAX TEMP:  23; 6HR PCP: TRACE;

SHELBYVILLE    CLOUDY    24  15  68 W7        30.54R WCI  16
6HR MIN TEMP:  21; 6HR MAX TEMP:  24;


$$

INZ033-034-041-042-049-050-058-059-101300-
EAST CENTRAL INDIANA

CITY           SKY/WX    TMP DP  RH WIND       PRES   REMARKS
MUNCIE         CLOUDY    23  16  74 W3        30.52R
6HR MIN TEMP:  23; 6HR MAX TEMP:  24; 6HR PCP: TRACE;


$$

INZ060-061-067>069-081>083-085>088-101300-
SOUTHWEST INDIANA

CITY           SKY/WX    TMP DP  RH WIND       PRES   REMARKS
EVANSVILLE     CLOUDY    22  17  81 CALM      30.61R
6HR MIN TEMP:  18; 6HR MAX TEMP:  22;

HUNTINGBURG *+ CLOUDY    17  15  92 CALM      30.60R
6HR MIN TEMP:  16; 6HR MAX TEMP:  19;


$$

INZ062-063-066-070>080-084-089>092-101300-
SOUTH CENTRAL AND SOUTHEAST INDIANA

CITY           SKY/WX    TMP DP  RH WIND       PRES   REMARKS
BLOOMINGTON    CLOUDY    22  17  81 W5        30.55R WCI  16
6HR MIN TEMP:  21; 6HR MAX TEMP:  23;

MADISON *+     CLOUDY    21  18  86 CALM      30.58R
SEYMOUR +      CLOUDY    23  18  80 W5        30.59R WCI  17

$$





USA.gov is the U.S. government's official web portal to all federal, state and local government web resources and services.